Regional Weather Roundup
Issued by NWS Mt. Holly, NJ

Home | Current Version | Previous Version | Text Only | Print | Product List | Glossary On
Versions: 1 2 3 4 5 6 7 8 9 10 11 12 13 14 15 16 17 18 19 20 21 22 23 24 25 26 27 28 29 30 31 32 33 34 35 36 37 38 39 40 41 42 43 44 45 46 47 48 49 50
000
ASUS41 KPHI 220810
RWRPHI

REGIONAL WEATHER ROUNDUP
NATIONAL WEATHER SERVICE MOUNT HOLLY NJ
400 AM EDT FRI AUG 22 2014

NOTE:  "FAIR" INDICATES FEW OR NO CLOUDS BELOW 12,000 FEET WITH NO
SIGNIFICANT WEATHER AND/OR OBSTRUCTIONS TO VISIBILITY.

 * = STATION DOES NOT REPORT PRECIPITATION (E.G. RAIN, SNOW, ETC.)
        OR FOG.

NJZ015>026-220900-
SOUTHERN NEW JERSEY

CITY           SKY/WX    TMP DP  RH WIND       PRES   REMARKS
POMONA         CLOUDY    68  67  96 NE13      29.98R
RIO GRANDE*    MOCLDY    70  64  83 CALM      29.96S
MILLVILLE      CLOUDY    69  67  93 NE7       29.97R
WRIGHTSTOWN    CLOUDY    66  66 100 SE2       29.98R
MOUNT HOLLY    LGT RAIN  66  65  96 SE7       29.98F
TRENTON        LGT RAIN  67  65  93 E5        29.99S

$$
NJZ001>014-220900-
NORTHERN NEW JERSEY

CITY           SKY/WX    TMP DP  RH WIND       PRES   REMARKS
SUSSEX         LGT RAIN  67  64  90 CALM        N/A  FOG
ANDOVER*         N/A     65  64  97 CALM      30.02F
MORRISTOWN     CLOUDY    66  63  88 CALM      30.02S FOG
NEWARK         LGT RAIN  67  63  87 CALM      30.01F
TETERBORO      CLOUDY    69  64  84 CALM      30.00R
CALDWELL       CLOUDY    65  62  90 CALM      30.02S
SOMERVILLE     LGT RAIN  67  64  90 CALM      30.00R
ALLAIRE*       CLOUDY    66  61  82 N7        30.00S
TOMS RIVER*    CLOUDY    66  64  94 S6        30.00S

$$
PAZ043-044-047-054-055-060>062-066>071-220900-
EASTERN PENNSYLVANIA

CITY           SKY/WX    TMP DP  RH WIND       PRES   REMARKS
PHILADELPHIA   CLOUDY    70  66  87 E7        29.99S
NORTH PHILA    LGT RAIN  69  65  86 E5        30.01R
BLUE BELL      CLOUDY    68  68 100 CALM      29.99S
DOYLESTOWN     LGT RAIN  66  66 100 CALM      29.99F
QUAKERTOWN*    MOCLDY    66  64  94 CALM      30.01S
POTTSTOWN      CLOUDY    67  65  93 E3        30.01F
LANCASTER      CLOUDY    70  68  93 CALM      29.98S FOG
COATESVILLE    CLOUDY    68  68 100 CALM      30.01R FOG
READING        CLOUDY    69  65  86 CALM      29.99R
ALLENTOWN      PTCLDY    67  64  90 CALM      30.00F
MOUNT POCONO   PTCLDY    61  59  93 NE3       30.04S
HAZLETON       CLOUDY    64  64 100 SE3       30.06R
WILKES BARRE   CLOUDY    69  65  86 CALM      30.00S

$$
DEZALL-MDZ008-012-015-019-020-220900-
DELAWARE AND EASTERN MARYLAND

CITY           SKY/WX    TMP DP  RH WIND       PRES   REMARKS
WILMINGTON     CLOUDY    72  68  87 NE18      29.98R
DOVER          CLEAR     71  71 100 CALM      29.94R
GEORGETOWN     LGT RAIN  73  70  90 S9G21     29.96S
EASTON         PTCLDY    73  73 100 CALM      29.99S FOG
PATUXENT       CLOUDY    76  70  82 NW10      29.95S
OCEAN CITY     LGT RAIN  76  72  87 SW12      29.94S
WALLOPS ISLAND CLOUDY    75  72  90 SW5       29.95F
CAMBRIDGE      MOCLDY    73  70  88 CALM      29.94F
SALISBURY      LGT RAIN  74  70  87 CALM      29.96R

$$
PAZ001-021-NYZ056-072-MDZ011-DCZ001-220900-
OTHER NEARBY LOCATIONS

CITY           SKY/WX    TMP DP  RH WIND       PRES   REMARKS
HARRISBURG     PTCLDY    68  65  90 CALM      29.97F FOG
STATE COLLEGE  MOCLDY    65  65  97 CALM      30.01S FOG
WILLIAMSPORT   MOCLDY    66  64  93 N3        29.98S
BINGHAMTON     FOG       60  60 100 NE5       30.02R VSB 1/4
NEW YORK CITY  CLOUDY    67  64  90 CALM      30.04F FOG
BALTIMORE      PTCLDY    70  67  90 CALM      29.95S
WASHINGTON DC  MOCLDY    76  65  68 W3        29.96F

$$


USA.gov is the U.S. government's official web portal to all federal, state and local government web resources and services.